Location: El Mirador
(1.2474°N, 75.5956°W)
Time: 04:45:11
(UTC+00:00)

Daily predictions for brighter satellites

Satellite Brightness Start Highest point End
(mag) Time Altitude Azimuth Time Altitude Azimuth Time Altitude Azimuth
DELTA 2 R/B (1) 4.2 00:01:31 10° NNW 00:06:28 33° NE 00:07:33 31° ENE
HETE-2 4.5 00:03:29 10° W 00:07:21 69° S 00:08:42 38° ESE
Cosmos 2322 Rocket 4.1 00:08:07 10° SE 00:09:26 13° ESE 00:09:26 13° ESE
Cosmos 2237 4.1 00:06:38 10° S 00:12:19 70° ESE 00:15:30 27° NNE
Resurs 1-3 4.0 00:10:22 10° S 00:14:38 63° W 00:18:51 10° NNW
Ariane H10 3.7 00:11:48 10° W 00:14:40 72° N 00:16:56 34° ENE
Cosmos-2242 4.1 00:12:26 10° SSW 00:16:23 42° W 00:20:20 10° NNW
Atlas Centaur 2 1.1 00:18:21 10° SW 00:22:02 72° SSE 00:22:20 67° ESE
SEDSat Delta rocket 3.9 00:17:31 10° WSW 00:23:43 80° NNW 00:26:11 41° NE
ARIANE 5 DEB (SYLDA) 3.4 00:14:55 10° W 00:24:37 89° SSW 00:25:42 52° E
Palapa 6 Rocket 2.5 00:22:53 10° WSW 00:26:32 82° S 00:26:32 82° S
Resurs 01 Rocket 1.7 00:24:45 10° SSE 00:28:31 56° ESE 00:28:31 56° ESE
ARIANE 5 DEB (SYLDA) 3.3 00:28:52 10° W 00:31:47 42° WSW 00:31:47 42° WSW
SL-16 R/B 2.2 00:29:29 10° S 00:35:01 57° ESE 00:35:17 56° E
Cosmos 1655 Rocket 4.2 00:29:10 10° N 00:35:19 71° W 00:41:31 10° S
VEP-3 3.4 00:30:49 10° NW 00:36:31 57° NNE 00:52:16 10° ESE
ARIANE DEB (SPELDA) 4.2 00:03:22 10° W 00:38:28 67° S 00:40:48 38° ESE
ISS -1.4 00:37:12 10° WNW 00:39:59 24° SW 00:42:14 13° S
CARTOSAT-1 4.0 00:36:38 10° S 00:40:45 58° W 00:42:20 34° NW
Cosmos 2285 Rocket 4.4 00:38:22 10° S 00:43:30 43° ESE 00:43:30 43° ESE
ARIANE 6 FM1 Upper Stage 3.7 00:43:40 10° NW 00:47:38 45° WSW 00:51:43 10° S
BLOCK DM-SL R/B 3.4 00:06:06 10° W 00:48:34 87° S 00:50:11 56° E
Ariane H10-3 3.1 00:44:25 10° W 00:54:16 74° S 00:55:00 63° SE
Cosmos 2278 3.7 00:50:49 10° SSW 00:55:56 72° S 00:55:56 72° S
Cosmos 2297 Rocket 2.3 00:53:27 10° NNW 00:59:03 74° WSW 01:04:42 10° S
Cosmos 2315 Rocket 4.0 00:53:09 10° S 00:58:34 64° SE 00:58:34 64° SE
NOSS 2-1 (D) 4.3 00:53:00 10° SSW 00:59:22 71° S 00:59:22 71° S
ARIANE 5 R/B 3.8 00:55:14 10° WSW 01:00:13 55° S 01:31:23 10° E
Delta 7925 Rocket 4.3 00:55:41 10° WNW 00:58:30 38° WNW 00:58:30 38° WNW
USA 59 Rocket 0.9 00:59:08 10° SSW 01:05:11 67° SW 01:05:11 67° SW
Ariane 3 Deb 4.0 01:09:55 10° W 01:13:27 57° NW 01:13:27 57° NW
Cosmos 2333 Rocket 2.9 01:10:06 10° SSW 01:14:10 49° SSW 01:14:10 49° SSW
ATLAS 2AS CENTAUR RB 3.6 00:18:54 10° WSW 01:21:32 72° S 01:23:09 62° ESE
Cosmos 2360 Rocket 3.9 01:29:18 10° SSW 01:31:42 26° SSW 01:31:42 26° SSW
Cosmos 2322 Rocket 4.3 01:49:15 10° SW 01:51:16 21° SW 01:51:16 21° SW
CENTAUR R/B 3.9 07:40:16 52° SE 07:40:16 52° SE 07:46:41 10° SSE
Ariane H10+ 3.4 08:14:01 48° SSE 08:14:01 48° SSE 08:22:57 10° ESE
ATLAS 2AS CENTAUR RB 4.2 08:16:34 30° NNE 08:16:34 30° NNE 08:29:07 10° ENE
Sakura Rocket 4.5 08:30:55 81° NNW 08:31:21 84° NNE 08:41:22 10° ESE
ASC 2 Rocket 3.8 08:46:32 61° SSE 08:46:32 61° SSE 08:52:01 10° ESE
Cosmos 1072 Rocket 4.4 08:51:53 61° N 08:53:09 90° NE 08:59:35 10° S
Centaur AC-119 3.2 08:56:00 72° NNW 08:56:03 72° NNW 09:02:17 10° NE
DASH 3.5 08:58:06 36° E 08:58:06 36° E 08:59:43 10° ESE
Hubble Space Telescope 1.7 09:04:38 41° E 09:04:38 41° E 09:07:20 10° ESE
Gbstr 26 Del rocket 3.8 09:08:30 52° NNW 09:10:09 87° NE 09:17:13 10° SE
Cosmos 1939 Rocket 2.9 09:11:52 63° SE 09:11:52 63° SE 09:15:06 10° S
ARIANE 3 DEB 4.3 09:17:15 19° NE 09:17:15 19° NE 09:18:36 10° ENE
Cosmos 468 Rocket 3.8 09:10:54 10° SSW 09:16:10 72° WNW 09:21:24 10° N
Cosmos 1315 Rocket 4.2 09:13:57 18° NNE 09:16:14 34° E 09:19:38 10° SSE
H-2A R/B 4.2 09:19:55 34° SSW 09:19:55 34° SSW 09:22:15 10° SSW
ARIANE 42L R/B 2.4 09:18:23 52° S 09:18:26 52° S 09:21:38 10° E
SL-16 R/B 2.5 09:12:45 10° SSE 09:19:00 90° WSW 09:23:41 19° NNW
IRS-1D 4.4 09:16:19 10° NNE 09:21:13 50° ESE 09:26:15 10° S
ARIANE 5 DEB (SYLDA) 4.3 09:26:24 14° SSE 09:26:24 14° SSE 09:27:52 10° SE
SJ-11-01 4.3 09:21:54 10° NNE 09:26:34 81° ESE 09:31:13 10° S
Cosmos 2082 Rocket 2.2 09:22:22 10° SSW 09:27:54 57° WNW 09:33:24 10° N
BREEZE-M DEB (TANK) 2.2 09:28:10 35° S 09:28:52 52° SE 09:31:43 10° NE
Cosmos 1455 Rocket 2.9 09:28:36 29° N 09:30:47 79° W 09:35:11 10° S
OAO 2 Rocket 3.7 09:30:42 39° WNW 09:31:38 44° NW 09:36:31 10° NE
Cosmos 1536 Rocket 4.0 09:29:02 10° S 09:33:25 64° E 09:37:47 10° NNE
Meteor 1-27 4.5 09:28:52 10° N 09:34:24 69° E 09:39:55 10° SSE
Aurora 2 Rocket 4.5 09:32:26 10° SW 09:37:52 32° SSE 09:41:56 10° E
USA 306 3.2 09:39:49 36° W 09:40:30 40° WSW 09:44:08 10° SSE
Cosmos 2058 2.9 09:38:52 10° SSW 09:42:38 46° W 09:44:54 21° NNW
BLOCK DM-SL R/B 4.4 09:38:50 22° W 09:42:43 85° S 10:04:54 10° E
CZ-4 R/B 3.7 09:43:32 10° NNE 09:48:08 90° N 09:52:47 10° SSW
Cosmos 1634 Rocket 4.0 09:46:22 10° N 09:52:34 86° E 09:58:50 10° S
Ariane H10+ 1.6 09:50:58 20° W 09:54:16 50° NNW 09:56:51 10° ENE
GPS 2-15 Rocket1 2.9 09:51:51 17° WSW 09:55:18 74° NNW 09:59:51 10° ENE
Cosmos 1862 3.7 09:56:23 10° SSW 09:59:37 32° W 10:02:51 10° NNW
Skynet4D Del rocket 4.4 09:53:29 18° WNW 09:59:49 90° NNE 10:07:07 10° ESE
ARIANE 5 DEB (SYLDA) 4.2 09:39:44 11° W 10:00:37 70° N 10:05:15 10° ENE
CZ-3A R/B 4.3 10:01:52 10° SW 10:04:18 16° S 10:08:53 10° SE
Cosmos 1656 3.9 09:59:03 11° NNW 10:04:20 50° WSW 10:09:41 10° S
Cosmos 2098 Rocket 4.4 10:05:21 10° N 10:11:02 58° E 10:16:20 10° SSE
HETE-2 4.2 10:08:05 14° W 10:11:15 88° S 10:14:58 10° E
SL-24 R/B 4.2 10:08:28 10° N 10:12:58 51° WNW 10:16:57 10° SSW
Centaur D-1A AC-35 3.1 10:10:10 12° W 10:13:06 33° SSW 10:17:22 10° SE
Cosmos 2279 Rocket 4.1 10:07:20 10° N 10:13:35 86° E 10:19:51 10° S
USA 267 3.3 10:08:19 10° NNE 10:14:38 55° NW 10:20:59 10° SW
Cosmos 1346 Rocket 2.7 10:11:05 10° SSW 10:14:39 51° W 10:18:13 10° N
OAO 3 Rocket 4.0 10:16:51 10° W 10:20:54 29° NW 10:24:59 10° NNE
Cosmos 2026 Rocket 4.4 10:16:05 10° S 10:22:10 68° E 10:28:08 10° N
Ariane 42L R/B 4.3 10:17:03 10° WSW 10:23:27 34° S 10:27:03 10° ESE
Ariane H10+ 4.4 10:15:18 10° WSW 10:23:33 57° S 10:38:58 10° E
SAR-Lupe-3 3.6 10:21:16 10° SSE 10:23:48 89° WSW 10:26:18 10° NNW
Iridium 51 4.5 10:21:57 10° NNW 10:24:51 32° W 10:27:43 10° SSW
Cosmos 2228 4.0 10:24:55 10° NW 10:28:24 26° W 10:31:52 10° SSW
Meteor 2-3 Rocket 3.8 10:23:51 10° SSW 10:29:37 71° W 10:35:21 10° N
